World > North America > United States > Ohio

Claridon, Ohio Regional Weather

Lat: 40.58N, Lon: 83W
Wx Zone: OHZ036Web Search

Helpful Tip: Abbreviated, 7 Day, 14 Day Forecasts. There is a weather forecast for every taste.

Feedback


°F Click to change Claridon hourly weather to Imperial units.Click to change Claridon hourly weather to Metric units. °C
Claridon Weather Map
UTC Time: 5/6/2021, 16:38
Your Time:

Claridon, OH Regional Weather

Expires:202105061600;;687426
ASUS41 KCLE 061512
RWRCLE
OHIO REGIONAL WEATHER ROUNDUP
NATIONAL WEATHER SERVICE WILMINGTON, OH
1100 AM EDT THU MAY 06 2021

NOTE: "FAIR" INDICATES FEW OR NO CLOUDS BELOW 12,000 FEET WITH NO
SIGNIFICANT WEATHER AND/OR OBSTRUCTIONS TO VISIBILITY.


OHZ036-037-039>041-045>050-054>059-063>069-073>076-082>088-061600-
  CENTRAL AND SOUTHEAST OHIO
  
CITY           SKY/WX    TMP DP  RH WIND       PRES   REMARKS
COLUMBUS       PTSUNNY   54  38  54 CALM      30.14F                  
OSU AIRPORT    FAIR      57  39  51 SW8       30.15F                  
BOLTON FIELD   SUNNY     54  39  58 S6        30.16F                  
RICKENBACK AFB FAIR      54  37  53 SW7       30.15F                  
NEWARK         FAIR      54  36  50 SW5       30.13F                  
MARION         FAIR      55  37  50 S13       30.13F                  
LANCASTER      FAIR      55  37  50 CALM      30.15F                  
ZANESVILLE     FAIR      53  39  59 VRB3      30.15F                  
NEW PHILLY     FAIR      53  39  59 MISG      30.16S                  
$$
  

SKY/WX - Weather  TMP - Temperature  DP - Dew Point  RH - Relative Humidity
WIND - Wind Direction/Speed PRES - Barometric Pressure VSB - Visibility
WCI - Wind Chill Index E13G22 Wind - East Wind 13 mph/Gusts of 22 mph